Regional Weather Roundup
Issued by NWS

Home | Current Version | Previous Version | Graphics & Text | Print | Product List | Glossary On
Versions: 1 2 3 4 5 6 7 8 9 10 11 12 13 14 15 16 17 18 19 20 21 22 23 24 25 26 27 28 29 30 31 32 33 34 35 36 37 38 39 40 41 42 43 44 45 46 47 48 49 50
000
ASUS45 KTFX 240904
RWRMT
MONTANA HOURLY WEATHER ROUNDUP
NATIONAL WEATHER SERVICE GREAT FALLS MT
204 AM MST MON NOV 24 2014

NOTE: "FAIR" INDICATES FEW OR NO CLOUDS BELOW 12000 FEET WITH NO
SIGNIFICANT WEATHER AND/OR OBSTRUCTIONS TO VISIBILITY.

* THESE STATIONS ARE NOT UNDER NWS QUALITY CONTROL. THEY DO NOT
   REPORT WEATHER SUCH AS PRECIPITATION OR FOG.

MTZ001>007-043-241000-
WEST OF THE DIVIDE
CITY           SKY/WX    TMP DP  RH WIND       PRES   REMARKS
KALISPELL      CLOUDY    34  30  85 S5        30.04R WCI  29
MISSOULA       CLOUDY    34  28  79 SW6       30.10R WCI  29
BUTTE          CLOUDY    27  21  78 NW13G18   29.98R WCI  16
MULLAN PASS    FOG       25  21  85 VRB5      30.05R VSB 2 1/2 WCI  19
* ESSEX        N/A       33  25  72 S2         N/A
* LINCOLN      N/A       29  27  92 S7G13      N/A   WCI  22
* LOOKOUT PASS N/A       28  27  96 NE6        N/A   WCI  21
* POLSON       N/A       28  28 100 S1         N/A
* RONAN APT    PTCLDY    36  28  73 N/A        N/A
* SEELEY LAKE  N/A       30  29  96 W4         N/A
* THOMP F APT  CLEAR     24  15  68 N4         N/A
* YAAK HILL    N/A       30  28  92 N/A        N/A
$$

MTZ008-052>055-241000-
SOUTHWEST MONTANA
CITY           SKY/WX    TMP DP  RH WIND       PRES   REMARKS
BOZEMAN        LGT SNOW  34  19  54 W12       29.95R WCI  25
DILLON         PTCLDY    28  18  66 W15       29.99R WCI  16
* W YELLOWSTON MOCLDY    21  18  88 SW3G10     N/A
* ENNIS APT    MOCLDY    30  18  61 SE7        N/A   WCI  23
* THREE FORKS  CLOUDY    37  19  48 N/A        N/A
* BOULDER HILL N/A       29  11  47 NE7G17     N/A   WCI  22
* MONIDA PASS  N/A       17  14  88 W19        N/A   WCI   1
* RAYNOLDS PAS N/A       23  13  65 SW8        N/A   WCI  14
* WHITEHALL    N/A       33  20  59 W16G23     N/A   WCI  23
* WISE RIVER   N/A       27  20  75 W9G19      N/A   WCI  18
$$

MTZ009>010-012-014-046-048-049-054-241000-
EAST SLOPES AND CENTRAL MONTANA
CITY           SKY/WX    TMP DP  RH WIND       PRES   REMARKS
CUT BANK       PTCLDY    28  19  69 W15       29.87R WCI  16
GREAT FALLS    CLOUDY    36  21  54 W13       29.88R WCI  27
HELENA         MOCLDY    36  21  54 W15G29    29.94R WCI  27
MALMSTROM AFB  CLOUDY    37  23  57 W12       29.91R WCI  29
* DEARBORN     N/A       38  23  55 SW3        N/A
* EAST GLACIER N/A       30  18  61 VRB7G12    N/A   WCI  23
* MONARCH      N/A       26  24  92 NW22G30    N/A   WCI  11
* PENDROY      N/A       31  17  56 NW13G18    N/A   WCI  21
* ROGERS PASS  N/A       27  23  85 E11G27     N/A   WCI  17
* SAINT MARY   N/A       32  19  59 SW7G19     N/A   WCI  25
* SWEET GRASS  N/A       34  18  52 NW23G28    N/A   WCI  22
$$

MTZ011-013-016-021-035-040-045-047-050-051-241000-
NORTH CENTRAL MONTANA
CITY           SKY/WX    TMP DP  RH WIND       PRES   REMARKS
HAVRE          CLOUDY    36  25  64 W13       29.80R WCI  27
LEWISTOWN      CLOUDY    36  21  54 W18G26    29.81R WCI  26
* N BAR RANCH  CLOUDY    34  23  64 NW13G21   29.78R WCI  25
* CHESTER      N/A       34  22  61 NW13G19    N/A   WCI  25
* DENTON       N/A       38  22  53 W15G21     N/A   WCI  29
* GEYSER       N/A       32  28  85 W17G24     N/A   WCI  21
* JUDITH GAP   N/A       34  19  54 NW23G30    N/A   WCI  22
* LOMA         N/A       38  24  57 W14G23     N/A   WCI  30
$$

MTZ017>020-022>027-061-062-241000-
NORTHEAST MONTANA
CITY           SKY/WX    TMP DP  RH WIND       PRES   REMARKS
GLASGOW        CLOUDY    19  16  88 E12       29.79S WCI   6
GLENDIVE       PTCLDY    10   5  80 CALM      29.81S
JORDAN         CLOUDY    25  21  85 W8        29.77R WCI  16
SIDNEY         PTCLDY     9   1  70 W3        29.86R
WOLF POINT     MOCLDY    10   7  88 SE3       29.84R
* BEAVER HILL  N/A       11   9  92 SW4        N/A
* CIRCLE       N/A       17  15  92 N/A        N/A
* LINDSAY DVD  N/A       18  13  81 NW11       N/A   WCI   6
* NAVAJO       N/A       14  11  88 NW4        N/A
* SACO         N/A       20  17  88 E9         N/A   WCI  10
$$

MTZ028>042-056>058-241000-
SOUTHCENTRAL AND SOUTHEAST MONTANA
CITY           SKY/WX    TMP DP  RH WIND       PRES   REMARKS
BAKER          CLEAR     16  12  84 NW10      29.77S WCI   4
BILLINGS       CLOUDY    39  21  48 W24G31    29.81S WCI  28
LIVINGSTON     CLOUDY    36  18  48 W17G30    29.88R WCI  26
MILES CITY     CLOUDY    25  19  78 CALM      29.79S
* LAUREL APT   CLOUDY    39  19  45 W20G26     N/A   WCI  29
* ALZADA       N/A       22  18  85 W2         N/A
* HYSHAM       N/A       32  30  92 W8         N/A   WCI  25
* REED POINT   N/A       39  22  51 W27G36     N/A   WCI  28
* ROSCOE HILL  N/A       33   6  32 W9G21      N/A   WCI  25
$$

REGIONAL REPORTS...DAKOTAS
CITY           SKY/WX    TMP DP  RH WIND       PRES   REMARKS
WILLISTON      PTCLDY     7   3  83 W6        29.84R WCI  -4
DICKINSON      CLEAR     14  10  84 NW13      29.75R
BEACH          CLOUDY    10  10 100 W5        29.80R WCI   1
CROSBY         CLEAR      3   1  91 NW6       29.84R WCI  -8
BISMARCK       PTCLDY    14   9  80 NW14      29.76R WCI  -1
GRAND FORKS    LGT SNOW  12   7  80 N25G33    29.63R WCI  -8
FARGO          LGT SNOW  16  10  77 NW25G32   29.60R WCI  -3
BUFFALO SD     CLEAR     16  12  84 NW9       29.69S WCI   5
RAPID CITY     PTCLDY    25  19  78 N10       29.73R WCI  15
$$

REGIONAL REPORTS...WYOMING/IDAHO/WASHINGTON
CITY           SKY/WX    TMP DP  RH WIND       PRES   REMARKS
SHERIDAN       CLOUDY    27  21  78 SW6       29.80S WCI  20
CODY           MOCLDY    32  19  59 W10       29.83S WCI  24
YELLOWSTONE LA MOCLDY    19  12  74 W6        29.93R WCI  11
SALMON         CLOUDY    27  25  92 SE3       30.10R VSB 1 1/2
MULLAN PASS    FOG       25  21  85 VRB5      30.05S VSB 2 1/2 WCI  19
SAND POINT     CLOUDY    34  34 100 SW5       30.17R WCI  29
SPOKANE        CLEAR     30  28  92 SW12      30.19R WCI  20

$$




USA.gov is the U.S. government's official web portal to all federal, state and local government web resources and services.